Location: Brunsbüttel
(52.3892°N, 10.6138°E)
Time: 23:22:23
(UTC+00:00)

Cosmos 2084 Rocket - Pass Details

Date: 19 May 2025
Orbit: 543 x 578 km, 62.8° (Epoch: 22 June)

Event Time Altitude Azimuth Distance (km) Brightness Sun altitude
Rises 20:17:09 0° 190° (S) 2,778 6.5 -8.1°
Reaches altitude 10° 20:19:39 10° 177° (S) 1,881 5.6 -8.3°
Maximum altitude 20:23:09 25° 122° (ESE) 1,173 4.4 -8.7°
Drops below altitude 10° 20:26:37 10° 66° (ENE) 1,878 5.9 -9.0°
Sets 20:29:07 0° 54° (NE) 2,773 6.9 -9.3°
